Location: Croissy-Beaubourg
(48.8283°N, 2.6696°E)
Time: 21:33:26
(UTC+00:00)

SeaSat 1 - Pass Details

Date: 16 October 2021
Orbit: 744 x 747 km, 108.0° (Epoch: 07 December)

Event Time Altitude Azimuth Distance (km) Brightness Sun altitude
Exits shadow 20:14:13 21° 359° (N) 1,634 4.4 -32.5°
Drops below altitude 10° 20:16:08 10° 345° (NNW) 2,273 5.4 -32.8°
Sets 20:18:33 0° 337° (NNW) 3,201 6.4 -33.1°
